Ogden, UT

7:18 AM MDT on September 16, 2019 (GMT -0600)
Ogden-Hinckley

Weather History for KOGD - August, 2019

Change the Weather History Date:

Monday, August 19, 2019

  Actual Average Record
Temperature  
Mean Temperature 78 °F -  
Max Temperature 93 °F 88 °F 99 °F (1961)
Min Temperature 64 °F 57 °F 43 °F (1978)
Cooling Degree Days 12    
Growing Degree Days 28 (Base 50)    
Moisture  
Dew Point 28 °F    
Average Humidity 17    
Maximum Humidity 28    
Minimum Humidity 7    
Precipitation  
Precipitation 0.00 in - - ()
Sea Level Pressure  
Sea Level Pressure 29.82 in    
Wind  
Wind Speed 10 mph (South)    
Max Wind Speed 17 mph    
Max Gust Speed 26 mph    
Visibility 10 miles    
Events      
Averages and records for this station are not official NWS values.
T = Trace of Precipitation, MM = Missing Value Source: NWS Daily Summary

Daily Weather History Graph

Daily Weather History Graph

Search for Another Location

Airport or City:

Astronomy

Aug. 19, 2019 Rise Set
Actual Time 6:41 AM MDT 8:21 PM MDT
Civil Twilight 6:12 AM MDT 8:50 PM MDT
Nautical Twilight 5:36 AM MDT 9:25 PM MDT
Astronomical Twilight 4:58 AM MDT 10:03 PM MDT
Moon 10:42 PM MDT (8/19) 10:28 AM MDT (8/19)
Length of Visible Light 14h 38m
Length of Day
13h 39m
Waning Gibbous, 85% of the Moon is Illuminated
Aug 19
Waning Gibbous
Aug 23
Last Quarter
Aug 30
New
Sep 5
First Quarter
Sep 13
Full

Hourly Weather History & Observations

Time (MDT) Temp. Dew Point Humidity Pressure Visibility Wind Dir Wind Speed Gust Speed Precip Events Conditions
12:53 AM 72.0 °F 33.1 °F 24% 29.75 in 10.0 mi SSE 11.5 mph - N/A   Clear
1:53 AM 69.1 °F 34.0 °F 27% 29.77 in 10.0 mi SSE 6.9 mph - N/A   Clear
2:53 AM 69.1 °F 30.9 °F 24% 29.77 in 10.0 mi SSE 12.7 mph - N/A   Clear
3:53 AM 68.0 °F 30.9 °F 25% 29.78 in 10.0 mi South 15.0 mph - N/A   Clear
4:53 AM 66.9 °F 30.9 °F 26% 29.80 in 10.0 mi SSE 13.8 mph - N/A   Clear
5:53 AM 66.0 °F 30.0 °F 26% 29.82 in 10.0 mi South 11.5 mph - N/A   Clear
6:53 AM 64.9 °F 30.9 °F 28% 29.84 in 10.0 mi SSE 10.4 mph - N/A   Clear
7:53 AM 68.0 °F 32.0 °F 26% 29.86 in 10.0 mi South 6.9 mph - N/A   Clear
8:53 AM 71.1 °F 34.0 °F 26% 29.88 in 10.0 mi SSE 9.2 mph - N/A   Clear
9:53 AM 80.1 °F 35.1 °F 20% 29.87 in 10.0 mi SSE 11.5 mph - N/A   Clear
10:53 AM 84.9 °F 27.0 °F 12% 29.87 in 10.0 mi South 17.3 mph 26.5 mph N/A   Clear
11:53 AM 87.1 °F 19.9 °F 8% 29.87 in 10.0 mi South 12.7 mph 21.9 mph N/A   Clear
12:53 PM 89.1 °F 21.0 °F 8% 29.86 in 10.0 mi South 16.1 mph - N/A   Clear
1:53 PM 91.0 °F 21.9 °F 8% 29.85 in 10.0 mi SW 10.4 mph 19.6 mph N/A   Clear
2:53 PM 91.9 °F 21.0 °F 8% 29.83 in 10.0 mi South 12.7 mph - N/A   Clear
3:53 PM 91.9 °F 21.9 °F 8% 29.81 in 10.0 mi Variable 6.9 mph - N/A   Clear
4:53 PM 91.9 °F 19.9 °F 7% 29.81 in 10.0 mi West 9.2 mph - N/A   Clear
5:53 PM 91.0 °F 18.0 °F 7% 29.80 in 10.0 mi WNW 4.6 mph - N/A   Clear
6:53 PM 90.0 °F 21.0 °F 8% 29.80 in 10.0 mi WNW 4.6 mph - N/A   Clear
7:53 PM 84.9 °F 25.0 °F 11% 29.80 in 10.0 mi Calm Calm - N/A   Clear
8:53 PM 77.0 °F 35.1 °F 22% 29.81 in 10.0 mi SSE 6.9 mph - N/A   Clear
9:53 PM 73.0 °F 30.0 °F 20% 29.82 in 10.0 mi South 6.9 mph - N/A   Clear
10:53 PM 72.0 °F 28.0 °F 20% 29.82 in 10.0 mi SSE 9.2 mph - N/A   Clear
11:53 PM 71.1 °F 28.9 °F 21% 29.82 in 10.0 mi South 9.2 mph - N/A   Clear